User: anonymous   Login
Location: Fort Wayne
(41.1310°N, 85.1290°W)
Time: 01:37:52
(UTC-04:00)
Language:

BREEZE-M DEB (TANK) - Orbit

View from above orbital plane
View from above orbital plane
View from above satellite
View from above satellite

Ground track
Ground track

The orbit data is extracted from the following two-line orbital elements,

1 27821U 03024B   17178.62743902 +.00002502 +00000-0 +22874-3 0  9991
2 27821 049.5523 265.2466 4943694 037.5839 348.4176 05.75834236281046
Epoch (UTC): 27 June 2017 15:03:30
Eccentricity: 0.4943694
inclination: 49.5523°
perigee height: 270 km
apogee height: 13270 km
right ascension of ascending node: 265.2466°
argument of perigee: 37.5839°
revolutions per day: 5.75834236
mean anomaly at epoch: 348.4176°
orbit number at epoch: 28104

The dashed part of the orbit path shows where the satellite is in the earth's shadow,  

DLR